Wind_Speed
77 72 75 73 74 79 81 80 76 78 81 86 89 91 87 87 84 80 83 83 83 85 87 90 89 88 87 85 84 87 86 86 86 80 74 69 65 63 64 65 67 68 68
74 77 77 76 83 88 84 82 77 77 80 82 87 91 90 90 80 73 74 79 84 83 81 82 84 84 87 88 87 85 86 85 85 84 79 75 70 67 67 69 70 69 69
80 82 80 79 84 89 84 79 82 82 85 91 91 90 87 84 82 79 76 75 77 80 81 82 82 84 85 87 89 89 88 86 86 86 82 78 75 73 71 70 72 73 73
93 93 94 97 96 99 96 93 100 94 99 94 100 101 97 94 89 91 88 89 88 84 86 85 85 88 84 85 87 90 91 90 89 87 87 83 78 78 78 75 77 78 76
98 99 101 103 105 106 109 110 110 105 105 105 103 109 107 109 106 106 103 100 98 96 95 93 92 91 95 91 86 83 83 81 86 88 88 85 80 77 76 77 75 77 79
89 89 89 90 92 96 102 107 108 108 109 109 108 109 111 110 107 106 107 110 105 101 96 95 97 96 93 95 98 93 86 78 72 78 79 80 81 79 76 77 80 78 80
76 77 78 81 82 83 83 85 86 89 93 96 100 105 109 109 103 100 102 107 109 109 107 102 98 97 97 99 101 100 103 89 83 80 77 74 75 73 75 79 81 82 80
67 68 70 72 74 76 77 78 78 80 81 84 86 88 92 94 97 102 104 106 108 110 112 111 108 103 102 103 103 99 94 96 97 88 86 81 75 75 74 75 82 83 86
67 69 71 73 75 77 78 79 79 79 79 80 80 80 82 81 84 87 92 98 102 103 103 104 109 111 107 107 108 107 102 93 89 90 88 88 84 76 74 78 80 83 88
68 70 72 74 76 76 76 77 79 80 80 79 79 80 81 80 83 85 89 93 93 94 94 95 96 101 105 108 111 111 111 102 96 93 92 90 87 89 83 79 72 83 86
69 71 74 76 75 75 73 72 72 72 71 68 67 65 64 63 63 68 74 81 87 91 94 93 91 92 95 101 106 110 110 107 108 103 98 96 95 92 94 92 87 75 83
70 71 72 71 69 69 67 64 63 61 54 47 44 47 53 59 63 66 69 74 78 79 80 84 90 91 92 93 97 100 103 107 110 111 106 100 97 98 93 97 98 91 78
67 66 67 65 62 56 54 53 54 52 46 48 49 51 54 58 64 70 76 78 78 78 77 77 77 81 86 90 93 93 95 99 103 107 107 104 101 98 98 99 95 99 98
62 65 62 56 49 46 45 47 51 50 45 41 40 42 46 52 51 53 60 65 69 74 72 72 74 71 69 74 83 88 93 94 95 96 100 100 101 103 103 100 100 94 96
60 61 54 45 42 40 42 42 42 42 41 44 46 46 46 48 50 57 57 54 55 58 63 64 63 66 63 60 62 73 83 90 93 91 90 93 97 100 102 100 98 99 97
57 53 44 40 39 38 37 37 42 42 43 44 45 47 47 48 50 59 54 48 48 50 49 51 53 56 61 60 57 55 62 75 86 88 88 87 89 92 95 98 97 96 96
52 42 39 37 36 34 35 37 36 39 44 43 43 45 47 47 51 59 52 44 44 42 41 42 43 42 46 47 51 52 53 61 72 82 85 87 87 86 87 89 90 90 92
45 38 36 35 33 33 32 35 36 37 38 43 46 43 43 46 49 55 49 41 37 37 34 35 37 36 37 39 44 47 50 55 62 70 77 82 84 85 83 80 82 82 86
39 33 34 33 33 32 32 33 35 37 39 41 42 42 41 43 46 51 45 38 32 30 27 27 28 30 32 33 38 40 43 48 54 61 66 72 77 80 81 79 78 80 82
33 31 32 31 32 31 32 35 36 36 38 38 40 41 39 39 42 45 43 36 30 27 24 22 22 25 27 29 32 35 38 42 46 51 57 63 68 72 76 77 76 76 76
28 28 29 30 30 31 33 36 38 39 39 39 39 40 41 37 36 38 40 35 28 25 21 18 18 19 23 27 30 32 34 35 38 42 47 52 57 61 67 71 72 74 69
24 25 27 27 30 31 33 37 41 42 41 41 41 40 39 37 32 32 33 33 30 23 20 18 16 15 18 22 26 28 29 29 30 34 38 43 48 52 57 62 65 66 63
21 23 24 27 29 30 34 38 41 42 43 44 43 41 37 35 30 27 27 27 27 27 26 19 17 16 15 15 17 19 21 22 24 26 30 34 39 42 47 51 54 58 61
19 20 22 26 27 31 34 38 40 42 43 45 44 40 33 31 27 24 22 22 22 23 23 20 15 12 10 8 9 10 12 16 20 22 25 26 29 33 36 42 46 47 48
17 18 21 24 28 31 35 37 39 41 41 40 38 36 32 29 27 22 20 20 20 20 21 19 18 15 7 10 12 12 12 15 16 19 21 25 26 27 32 39 41 38 42
15 18 21 24 27 30 34 35 38 38 37 34 33 30 26 27 28 24 20 19 18 19 20 20 18 14 10 12 11 10 8 11 15 19 18 23 27 30 33 34 32 31 34
Wind_Direction
278 278 275 269 273 270 269 270 268 269 269 267 265 266 265 266 265 261 259 257 255 257 258 257 255 257 259 259 259 259 260 261 260 258 258 256 254 254 258 259 259 260 262
272 273 269 265 273 270 267 268 268 270 270 270 265 264 266 262 261 262 263 263 261 262 266 263 261 261 259 259 257 256 257 257 259 258 257 256 254 253 254 256 258 259 261
272 269 270 265 267 272 259 264 265 264 264 264 264 261 261 260 261 262 264 264 264 264 263 263 266 269 266 262 259 257 255 255 256 256 255 255 254 251 252 255 257 258 258
273 272 269 270 270 270 271 264 269 269 268 267 269 270 267 263 267 270 269 272 270 265 265 264 264 263 265 263 260 258 256 255 253 254 254 254 253 252 252 252 254 257 258
276 275 274 272 272 270 271 273 274 277 274 271 270 273 274 272 271 273 274 274 272 269 264 263 263 263 262 262 258 256 254 258 257 255 252 252 252 251 253 255 253 253 254
276 276 277 276 276 275 274 273 275 275 274 274 273 270 271 273 272 272 272 271 269 266 263 260 261 261 261 264 262 257 251 247 254 258 258 257 254 252 252 252 250 248 251
283 283 283 282 282 282 281 280 278 276 275 275 274 272 270 269 269 268 267 268 268 266 264 263 259 259 259 259 261 262 260 254 253 252 256 257 256 257 255 254 251 246 245
290 289 288 288 287 286 285 284 282 281 280 278 276 274 273 271 271 271 269 267 266 265 265 263 261 258 256 256 257 258 259 261 261 257 250 253 249 254 255 253 251 244 239
292 291 290 289 288 287 287 287 286 285 283 281 280 278 276 273 271 269 269 268 267 265 263 260 261 260 257 255 254 255 255 253 254 256 255 252 251 248 252 251 252 253 246
292 291 291 291 290 290 290 288 287 286 285 283 282 280 278 276 274 272 270 269 268 267 264 261 258 257 256 254 254 253 253 253 251 250 248 249 250 248 247 250 252 251 250
294 294 294 294 294 295 294 292 291 290 290 288 286 284 281 279 277 276 274 272 269 266 265 264 261 258 254 253 252 251 252 251 252 250 247 246 244 244 246 247 249 250 251
296 297 296 298 299 299 299 298 297 297 295 293 291 289 288 286 285 284 281 276 272 268 265 262 260 257 254 253 251 251 250 248 248 249 248 245 245 245 245 247 249 248 246
299 298 299 301 302 302 302 303 303 302 298 296 295 294 292 289 287 284 283 279 274 269 266 262 260 257 254 251 250 250 249 248 247 246 246 247 245 244 244 245 246 249 247
301 300 303 303 302 303 304 307 307 305 302 297 300 303 304 303 300 293 288 284 282 275 268 263 260 259 258 254 249 246 247 248 249 248 246 244 242 242 243 243 244 244 245
302 302 303 300 300 300 306 313 315 308 301 298 301 307 308 313 311 310 304 292 287 280 270 265 259 255 256 257 254 248 245 245 246 247 246 244 242 241 241 241 240 242 243
300 302 297 297 297 303 309 317 318 321 321 313 305 305 310 317 318 321 314 303 295 290 277 263 261 256 254 255 253 254 249 243 242 243 243 244 244 242 241 242 241 239 240
301 297 294 293 299 306 315 316 319 324 326 326 320 312 313 317 319 324 319 309 300 295 279 265 261 258 257 250 249 250 248 244 241 239 239 239 240 242 242 241 241 239 237
300 291 291 296 303 309 319 321 320 320 321 324 326 321 317 317 323 327 321 313 306 300 289 269 260 256 254 248 248 245 244 242 239 238 237 236 236 238 240 241 240 238 236
292 288 290 300 305 312 321 325 326 324 325 322 326 326 322 319 324 332 327 317 311 307 295 281 267 256 249 247 245 245 248 248 243 239 237 236 235 235 237 238 238 239 238
285 284 292 299 305 312 320 325 328 329 326 325 326 326 324 322 324 333 334 326 319 317 307 292 275 260 251 249 248 250 253 252 248 244 239 237 235 234 233 235 236 237 239
277 284 293 300 305 313 321 324 328 330 330 329 327 327 326 322 323 329 338 337 330 321 318 307 286 268 259 257 257 256 257 257 252 245 242 240 237 236 234 233 235 237 237
270 282 290 298 307 317 322 324 326 328 330 331 330 329 326 322 317 321 331 340 346 338 328 315 300 282 269 262 261 261 260 258 252 247 243 241 239 237 236 234 235 237 236
266 279 289 300 310 318 321 324 326 328 329 330 329 329 326 319 314 316 320 333 340 343 345 335 316 299 284 274 269 266 261 256 251 248 244 241 238 236 235 234 234 235 235
263 277 292 304 314 319 322 325 326 328 329 329 330 331 328 323 318 314 317 321 334 341 345 355 347 326 314 310 302 277 264 256 249 241 235 233 232 230 232 229 230 232 236
261 281 296 308 315 320 323 325 327 329 332 333 333 332 335 340 337 319 321 322 323 333 342 341 336 332 304 317 335 280 264 252 241 231 222 221 215 218 226 225 228 234 235
266 286 301 310 315 321 325 327 330 333 336 336 334 334 336 342 349 346 329 322 323 322 327 335 342 335 305 311 328 341 315 258 240 210 218 217 213 215 216 220 227 229 234
Height
5618 5616 5615 5614 5614 5612 5609 5607 5606 5605 5605 5604 5604 5604 5603 5603 5604 5605 5605 5605 5607 5607 5609 5612 5615 5617 5620 5622 5622 5624 5627 5629 5632 5638 5644 5648 5651 5654 5656 5657 5658 5662 5666
5597 5596 5595 5592 5590 5588 5586 5584 5583 5582 5580 5580 5581 5580 5580 5581 5580 5580 5581 5580 5582 5582 5583 5587 5590 5592 5597 5598 5599 5603 5604 5607 5609 5616 5619 5625 5632 5635 5636 5638 5639 5643 5647
5576 5573 5569 5566 5568 5564 5560 5557 5556 5556 5556 5556 5556 5555 5555 5555 5556 5555 5556 5558 5559 5560 5561 5562 5565 5566 5571 5573 5576 5578 5581 5583 5586 5591 5597 5601 5609 5613 5616 5619 5622 5625 5626
5550 5548 5545 5542 5539 5537 5532 5530 5529 5529 5529 5527 5528 5529 5528 5527 5527 5528 5528 5530 5534 5536 5537 5539 5542 5543 5547 5547 5549 5554 5555 5558 5561 5567 5572 5578 5585 5592 5593 5597 5601 5605 5608
5519 5515 5513 5510 5507 5505 5502 5499 5497 5494 5496 5497 5497 5495 5495 5497 5499 5497 5497 5499 5502 5506 5509 5512 5514 5519 5522 5523 5525 5530 5530 5533 5536 5541 5546 5553 5562 5569 5576 5580 5581 5582 5587
5494 5489 5484 5480 5477 5473 5470 5467 5464 5462 5462 5463 5464 5465 5465 5465 5466 5464 5461 5462 5467 5472 5478 5483 5486 5488 5493 5495 5498 5503 5506 5507 5513 5515 5522 5529 5540 5546 5551 5555 5555 5557 5565
5469 5464 5459 5454 5450 5446 5443 5440 5437 5434 5432 5430 5430 5428 5430 5432 5433 5429 5426 5422 5427 5435 5442 5448 5453 5459 5460 5465 5467 5470 5477 5484 5488 5491 5498 5509 5511 5521 5528 5529 5533 5536 5544
5451 5446 5439 5432 5427 5421 5418 5414 5411 5408 5406 5403 5401 5398 5395 5400 5396 5388 5385 5383 5389 5397 5402 5410 5416 5427 5431 5434 5435 5439 5446 5452 5462 5467 5473 5483 5488 5493 5501 5507 5509 5512 5513
5432 5426 5420 5413 5406 5400 5394 5389 5384 5379 5376 5373 5370 5367 5364 5368 5361 5356 5349 5344 5348 5357 5364 5370 5375 5384 5396 5399 5399 5405 5413 5426 5433 5437 5447 5456 5460 5468 5476 5479 5486 5491 5496
5414 5407 5399 5391 5384 5379 5373 5366 5359 5352 5348 5344 5342 5336 5333 5334 5328 5324 5318 5314 5316 5320 5327 5331 5337 5343 5352 5357 5358 5367 5376 5401 5403 5409 5417 5427 5436 5441 5448 5459 5464 5470 5477
5396 5388 5379 5370 5363 5355 5349 5341 5335 5330 5325 5319 5315 5310 5306 5302 5299 5293 5288 5283 5282 5285 5288 5294 5300 5306 5311 5317 5319 5327 5346 5364 5365 5373 5384 5395 5406 5416 5424 5434 5442 5449 5455
5377 5368 5359 5351 5343 5334 5327 5320 5313 5307 5303 5299 5296 5293 5288 5283 5277 5269 5260 5254 5251 5250 5254 5257 5262 5269 5276 5282 5284 5294 5308 5318 5322 5335 5349 5367 5378 5389 5399 5407 5415 5423 5431
5358 5350 5342 5335 5326 5317 5311 5304 5298 5292 5288 5284 5280 5276 5270 5263 5255 5244 5233 5225 5222 5220 5223 5225 5228 5232 5238 5246 5254 5264 5272 5278 5287 5298 5316 5335 5351 5359 5364 5375 5385 5393 5403
5342 5333 5326 5319 5312 5306 5300 5292 5284 5278 5273 5268 5264 5259 5252 5244 5232 5222 5211 5202 5194 5190 5193 5197 5199 5204 5209 5215 5223 5233 5241 5247 5256 5267 5282 5301 5309 5321 5334 5346 5355 5366 5375
5327 5318 5312 5306 5301 5297 5290 5281 5273 5265 5259 5255 5249 5244 5237 5228 5216 5202 5189 5181 5173 5168 5165 5169 5174 5178 5184 5190 5196 5203 5212 5220 5227 5241 5252 5264 5276 5289 5301 5312 5323 5335 5344
5312 5306 5300 5296 5292 5286 5280 5273 5262 5253 5245 5238 5233 5227 5221 5211 5200 5186 5173 5163 5155 5148 5145 5149 5153 5156 5161 5168 5173 5180 5186 5194 5201 5212 5224 5234 5244 5257 5267 5278 5290 5306 5316
5298 5294 5290 5286 5282 5277 5270 5262 5256 5246 5234 5227 5221 5214 5206 5198 5186 5173 5160 5151 5142 5135 5132 5133 5135 5139 5142 5147 5153 5159 5164 5170 5176 5184 5193 5204 5217 5228 5239 5250 5263 5277 5288
5286 5282 5280 5277 5272 5267 5260 5253 5245 5238 5230 5220 5209 5203 5194 5184 5175 5164 5151 5142 5134 5126 5122 5121 5122 5126 5128 5132 5136 5141 5145 5149 5154 5161 5169 5179 5192 5203 5216 5229 5239 5251 5261
5275 5273 5270 5267 5263 5257 5251 5245 5237 5229 5220 5212 5204 5193 5185 5174 5166 5156 5144 5135 5127 5119 5115 5113 5113 5115 5117 5120 5124 5128 5131 5135 5139 5143 5151 5159 5172 5185 5196 5206 5217 5227 5236
5265 5263 5261 5258 5254 5248 5242 5236 5229 5221 5213 5205 5196 5187 5178 5169 5160 5150 5138 5129 5122 5115 5110 5108 5107 5108 5109 5111 5114 5116 5118 5121 5125 5130 5137 5144 5154 5164 5176 5187 5197 5207 5218
5256 5255 5252 5249 5245 5239 5233 5227 5220 5213 5205 5196 5188 5179 5170 5162 5154 5146 5137 5127 5118 5112 5108 5104 5102 5101 5102 5104 5105 5106 5108 5110 5113 5117 5124 5131 5139 5149 5159 5170 5180 5189 5200
5246 5246 5244 5241 5237 5230 5225 5219 5211 5204 5196 5188 5180 5171 5163 5154 5148 5141 5134 5126 5118 5110 5105 5102 5099 5097 5096 5097 5097 5098 5099 5101 5104 5108 5114 5120 5127 5135 5145 5155 5164 5174 5184
5237 5237 5235 5233 5228 5223 5217 5211 5204 5196 5187 5180 5172 5163 5155 5147 5140 5135 5130 5124 5117 5111 5105 5100 5096 5094 5093 5092 5092 5092 5092 5094 5097 5101 5105 5111 5117 5125 5133 5142 5151 5159 5169
5228 5228 5227 5224 5220 5215 5210 5203 5196 5188 5180 5171 5163 5155 5147 5140 5133 5129 5125 5121 5116 5111 5105 5100 5096 5093 5092 5090 5089 5088 5088 5090 5092 5095 5099 5104 5110 5117 5124 5132 5140 5148 5156
5219 5220 5219 5215 5212 5207 5202 5195 5188 5180 5172 5164 5156 5149 5142 5135 5129 5124 5121 5117 5114 5110 5106 5101 5097 5094 5092 5090 5088 5085 5085 5085 5087 5089 5092 5097 5102 5109 5117 5124 5132 5138 5145
5212 5212 5210 5207 5204 5200 5194 5187 5181 5173 5166 5159 5152 5145 5139 5134 5128 5122 5117 5114 5111 5108 5105 5101 5098 5094 5092 5090 5089 5087 5084 5083 5084 5086 5090 5093 5097 5103 5109 5116 5122 5127 5133